Location: Unspecified
(0.0000°N, 0.0000°E)
Time: 12:53:01
(UTC+01:00)

ISS - Visible Passes

Search period start: 24 November 2014 00:00
Search period end: 04 December 2014 00:00
Orbit: 408 x 417 km, 51.6° (Epoch: 24 November)

Date Brightness Start Highest point End Pass type
(mag) Time Alt. Az. Time Alt. Az. Time Alt. Az.
28 Nov -1.0 20:40:31 10° SW 20:41:55 23° SW 20:41:55 23° SW visible
29 Nov -2.4 19:50:51 10° SSW 19:53:52 33° SE 19:54:31 30° E visible
30 Nov -0.8 20:37:59 10° W 20:39:58 17° WNW 20:39:58 17° WNW visible
01 Dec -2.3 19:47:04 10° SW 19:50:14 44° NW 19:52:33 16° NNE visible
03 Dec -0.2 19:45:48 10° WNW 19:46:23 10° NW 19:46:59 10° NW visible
